Time,TemperatureF,DewpointF,PressureIn,WindDirection,WindDirectionDegrees,WindSpeedMPH,WindSpeedGustMPH,Humidity,HourlyPrecipIn,Conditions,Clouds,dailyrainin,SoftwareType,DateUTC
2013-06-26 00:09:00,76.4,27.0,29.58,North,360,1.0,1.0,16,0.00,,,0.00,weatherlink.com 1.10,2013-06-26 06:09:00,
2013-06-26 00:24:00,75.7,32.0,29.58,North,360,0.0,0.0,20,0.00,,,0.00,weatherlink.com 1.10,2013-06-26 06:24:00,
2013-06-26 00:39:00,74.6,25.0,29.58,North,359,0.0,0.0,16,0.00,,,0.00,weatherlink.com 1.10,2013-06-26 06:39:00,
2013-06-26 00:54:00,74.4,25.0,29.59,North,360,0.0,1.0,16,0.00,,,0.00,weatherlink.com 1.10,2013-06-26 06:54:00,
2013-06-26 01:09:00,73.5,27.0,29.59,North,360,0.0,0.0,18,0.00,,,0.00,weatherlink.com 1.10,2013-06-26 07:09:00,
2013-06-26 01:24:00,72.3,29.0,29.59,North,360,0.0,1.0,20,0.00,,,0.00,weatherlink.com 1.10,2013-06-26 07:24:00,
2013-06-26 01:39:00,70.9,28.0,29.60,North,359,0.0,0.0,20,0.00,,,0.00,weatherlink.com 1.10,2013-06-26 07:39:00,
2013-06-26 01:54:00,70.9,28.0,29.60,North,360,0.0,1.0,20,0.00,,,0.00,weatherlink.com 1.10,2013-06-26 07:54:00,
2013-06-26 02:09:00,71.2,30.0,29.60,North,360,0.0,1.0,22,0.00,,,0.00,weatherlink.com 1.10,2013-06-26 08:09:00,
2013-06-26 02:24:00,70.4,31.0,29.60,North,360,0.0,0.0,23,0.00,,,0.00,weatherlink.com 1.10,2013-06-26 08:24:00,
2013-06-26 02:39:00,69.6,33.0,29.60,North,360,0.0,0.0,26,0.00,,,0.00,weatherlink.com 1.10,2013-06-26 08:39:00,
2013-06-26 02:54:00,70.1,27.0,29.61,North,360,0.0,0.0,20,0.00,,,0.00,weatherlink.com 1.10,2013-06-26 08:54:00,
2013-06-26 03:09:00,70.5,32.0,29.61,North,360,0.0,0.0,24,0.00,,,0.00,weatherlink.com 1.10,2013-06-26 09:09:00,
2013-06-26 03:24:00,69.7,28.0,29.61,North,360,0.0,0.0,21,0.00,,,0.00,weatherlink.com 1.10,2013-06-26 09:24:00,
2013-06-26 03:39:00,70.2,28.0,29.61,SE,134,1.0,2.0,21,0.00,,,0.00,weatherlink.com 1.10,2013-06-26 09:39:00,
2013-06-26 03:54:00,69.6,25.0,29.62,ESE,103,0.0,2.0,19,0.00,,,0.00,weatherlink.com 1.10,2013-06-26 09:54:00,
2013-06-26 04:09:00,69.8,24.0,29.62,SE,136,1.0,3.0,18,0.00,,,0.00,weatherlink.com 1.10,2013-06-26 10:09:00,
2013-06-26 04:24:00,69.6,27.0,29.63,ESE,113,0.0,1.0,20,0.00,,,0.00,weatherlink.com 1.10,2013-06-26 10:24:00,
2013-06-26 04:39:00,68.8,26.0,29.64,ESE,113,0.0,1.0,20,0.00,,,0.00,weatherlink.com 1.10,2013-06-26 10:39:00,
2013-06-26 04:54:00,66.9,29.0,29.64,ESE,113,0.0,0.0,24,0.00,,,0.00,weatherlink.com 1.10,2013-06-26 10:54:00,
2013-06-26 05:09:00,66.6,29.0,29.65,ESE,113,0.0,0.0,24,0.00,,,0.00,weatherlink.com 1.10,2013-06-26 11:09:00,
2013-06-26 05:24:00,66.7,25.0,29.66,ESE,113,0.0,0.0,21,0.00,,,0.00,weatherlink.com 1.10,2013-06-26 11:24:00,
2013-06-26 05:40:00,66.6,32.0,29.66,ESE,113,0.0,1.0,28,0.00,,,0.00,weatherlink.com 1.10,2013-06-26 11:40:00,
2013-06-26 05:55:00,68.5,33.0,29.67,ESE,113,0.0,0.0,27,0.00,,,0.00,weatherlink.com 1.10,2013-06-26 11:55:00,
2013-06-26 06:10:00,67.1,29.0,29.68,ESE,113,1.0,1.0,24,0.00,,,0.00,weatherlink.com 1.10,2013-06-26 12:10:00,
2013-06-26 06:25:00,67.0,29.0,29.68,ESE,113,0.0,1.0,24,0.00,,,0.00,weatherlink.com 1.10,2013-06-26 12:25:00,
2013-06-26 06:40:00,66.9,26.0,29.69,ESE,120,1.0,2.0,21,0.00,,,0.00,weatherlink.com 1.10,2013-06-26 12:40:00,
2013-06-26 06:55:00,68.3,26.0,29.70,ESE,122,0.0,1.0,20,0.00,,,0.00,weatherlink.com 1.10,2013-06-26 12:55:00,
2013-06-26 07:10:00,68.5,25.0,29.70,SW,236,1.0,1.0,19,0.00,,,0.00,weatherlink.com 1.10,2013-06-26 13:10:00,
2013-06-26 07:25:00,69.9,26.0,29.71,WSW,239,0.0,2.0,19,0.00,,,0.00,weatherlink.com 1.10,2013-06-26 13:25:00,
2013-06-26 07:40:00,71.9,29.0,29.71,SSW,212,0.0,1.0,20,0.00,,,0.00,weatherlink.com 1.10,2013-06-26 13:40:00,
2013-06-26 07:55:00,72.9,25.0,29.72,SW,225,1.0,1.0,17,0.00,,,0.00,weatherlink.com 1.10,2013-06-26 13:55:00,
2013-06-26 08:10:00,73.8,26.0,29.72,SW,216,1.0,1.0,17,0.00,,,0.00,weatherlink.com 1.10,2013-06-26 14:10:00,
2013-06-26 08:25:00,76.1,27.0,29.72,SE,125,1.0,3.0,16,0.00,,,0.00,weatherlink.com 1.10,2013-06-26 14:25:00,
2013-06-26 08:40:00,77.7,23.0,29.72,ESE,110,4.0,4.0,13,0.00,,,0.00,weatherlink.com 1.10,2013-06-26 14:40:00,
2013-06-26 08:55:00,79.3,24.0,29.73,ESE,113,1.0,3.0,13,0.00,,,0.00,weatherlink.com 1.10,2013-06-26 14:55:00,
2013-06-26 09:10:00,80.5,23.0,29.72,WSW,243,1.0,3.0,12,0.00,,,0.00,weatherlink.com 1.10,2013-06-26 15:10:00,
2013-06-26 09:25:00,82.3,23.0,29.73,WSW,239,0.0,3.0,11,0.00,,,0.00,weatherlink.com 1.10,2013-06-26 15:25:00,
2013-06-26 09:40:00,83.5,24.0,29.72,SE,136,0.0,3.0,11,0.00,,,0.00,weatherlink.com 1.10,2013-06-26 15:40:00,
2013-06-26 09:55:00,85.4,23.0,29.72,SSE,155,0.0,2.0,10,0.00,,,0.00,weatherlink.com 1.10,2013-06-26 15:55:00,
2013-06-26 10:10:00,87.8,25.0,29.72,WSW,240,1.0,1.0,10,0.00,,,0.00,weatherlink.com 1.10,2013-06-26 16:10:00,
2013-06-26 10:25:00,87.5,25.0,29.72,SSW,208,1.0,3.0,10,0.00,,,0.00,weatherlink.com 1.10,2013-06-26 16:25:00,
2013-06-26 10:40:00,89.1,28.0,29.72,SSW,193,1.0,3.0,11,0.00,,,0.00,weatherlink.com 1.10,2013-06-26 16:40:00,
2013-06-26 10:55:00,89.2,30.0,29.71,WNW,287,1.0,5.0,12,0.00,,,0.00,weatherlink.com 1.10,2013-06-26 16:55:00,
2013-06-26 11:10:00,91.6,28.0,29.71,SSW,200,0.0,2.0,10,0.00,,,0.00,weatherlink.com 1.10,2013-06-26 17:10:00,
2013-06-26 11:25:00,90.3,27.0,29.71,WNW,302,1.0,5.0,10,0.00,,,0.00,weatherlink.com 1.10,2013-06-26 17:25:00,
2013-06-26 11:40:00,93.0,29.0,29.71,SSW,212,2.0,4.0,10,0.00,,,0.00,weatherlink.com 1.10,2013-06-26 17:40:00,
2013-06-26 11:55:00,91.4,28.0,29.70,SSE,158,0.0,5.0,10,0.00,,,0.00,weatherlink.com 1.10,2013-06-26 17:55:00,
2013-06-26 12:10:00,93.7,29.0,29.70,WSW,240,1.0,4.0,10,0.00,,,0.00,weatherlink.com 1.10,2013-06-26 18:10:00,
2013-06-26 12:26:00,95.0,30.0,29.69,SW,224,4.0,4.0,10,0.00,,,0.00,weatherlink.com 1.10,2013-06-26 18:26:00,
2013-06-26 12:41:00,95.2,28.0,29.68,West,278,1.0,4.0,9,0.00,,,0.00,weatherlink.com 1.10,2013-06-26 18:41:00,
2013-06-26 12:56:00,96.3,26.0,29.67,SW,229,2.0,5.0,8,0.00,,,0.00,weatherlink.com 1.10,2013-06-26 18:56:00,
2013-06-26 13:11:00,97.2,23.0,29.67,ESE,123,2.0,3.0,7,0.00,,,0.00,weatherlink.com 1.10,2013-06-26 19:11:00,
2013-06-26 13:26:00,96.5,23.0,29.66,ESE,120,3.0,8.0,7,0.00,,,0.00,weatherlink.com 1.10,2013-06-26 19:26:00,
2013-06-26 13:41:00,98.7,24.0,29.65,SW,221,0.0,4.0,7,0.00,,,0.00,weatherlink.com 1.10,2013-06-26 19:41:00,
2013-06-26 13:56:00,100.3,26.0,29.65,SSE,151,2.0,6.0,7,0.00,,,0.00,weatherlink.com 1.10,2013-06-26 19:56:00,
2013-06-26 14:11:00,99.9,22.0,29.64,SE,127,1.0,4.0,6,0.00,,,0.00,weatherlink.com 1.10,2013-06-26 20:11:00,
2013-06-26 14:26:00,100.4,26.0,29.63,North,4,2.0,5.0,7,0.00,,,0.00,weatherlink.com 1.10,2013-06-26 20:26:00,
2013-06-26 14:41:00,100.8,26.0,29.62,SSW,211,5.0,5.0,7,0.00,,,0.00,weatherlink.com 1.10,2013-06-26 20:41:00,
2013-06-26 14:56:00,100.6,22.0,29.62,NW,313,1.0,5.0,6,0.00,,,0.00,weatherlink.com 1.10,2013-06-26 20:56:00,
2013-06-26 15:11:00,100.8,22.0,29.61,NNW,346,2.0,6.0,6,0.00,,,0.00,weatherlink.com 1.10,2013-06-26 21:11:00,
2013-06-26 15:26:00,100.2,22.0,29.61,WSW,253,5.0,6.0,6,0.00,,,0.00,weatherlink.com 1.10,2013-06-26 21:26:00,
2013-06-26 15:41:00,100.3,22.0,29.60,SW,219,2.0,4.0,6,0.00,,,0.00,weatherlink.com 1.10,2013-06-26 21:41:00,
2013-06-26 15:56:00,100.8,22.0,29.59,WSW,248,1.0,8.0,6,0.00,,,0.00,weatherlink.com 1.10,2013-06-26 21:56:00,
2013-06-26 16:11:00,102.3,23.0,29.59,WSW,243,1.0,5.0,6,0.00,,,0.00,weatherlink.com 1.10,2013-06-26 22:11:00,
2013-06-26 16:26:00,101.3,23.0,29.58,NW,321,1.0,5.0,6,0.00,,,0.00,weatherlink.com 1.10,2013-06-26 22:26:00,
2013-06-26 16:41:00,102.8,24.0,29.57,SW,232,3.0,8.0,6,0.00,,,0.00,weatherlink.com 1.10,2013-06-26 22:41:00,
2013-06-26 16:56:00,101.0,22.0,29.57,SE,135,1.0,4.0,6,0.00,,,0.00,weatherlink.com 1.10,2013-06-26 22:56:00,
2013-06-26 17:11:00,103.0,24.0,29.57,SW,226,3.0,4.0,6,0.00,,,0.00,weatherlink.com 1.10,2013-06-26 23:11:00,
2013-06-26 17:26:00,102.0,23.0,29.56,WSW,242,3.0,9.0,6,0.00,,,0.00,weatherlink.com 1.10,2013-06-26 23:26:00,
2013-06-26 17:41:00,102.2,19.0,29.56,South,170,3.0,7.0,5,0.00,,,0.00,weatherlink.com 1.10,2013-06-26 23:41:00,
2013-06-26 17:56:00,101.3,18.0,29.55,SSW,194,0.0,8.0,5,0.00,,,0.00,weatherlink.com 1.10,2013-06-26 23:56:00,
2013-06-26 18:11:00,101.1,23.0,29.55,SSE,148,2.0,6.0,6,0.00,,,0.00,weatherlink.com 1.10,2013-06-27 00:11:00,
2013-06-26 18:26:00,100.5,22.0,29.55,WNW,294,3.0,6.0,6,0.00,,,0.00,weatherlink.com 1.10,2013-06-27 00:26:00,
2013-06-26 18:41:00,100.2,22.0,29.55,SSW,192,1.0,5.0,6,0.00,,,0.00,weatherlink.com 1.10,2013-06-27 00:41:00,
2013-06-26 18:56:00,99.6,21.0,29.55,SW,232,1.0,5.0,6,0.00,,,0.00,weatherlink.com 1.10,2013-06-27 00:56:00,
2013-06-26 19:11:00,98.0,24.0,29.55,WSW,238,2.0,6.0,7,0.00,,,0.00,weatherlink.com 1.10,2013-06-27 01:11:00,
2013-06-26 19:26:00,97.1,23.0,29.55,WSW,253,2.0,5.0,7,0.00,,,0.00,weatherlink.com 1.10,2013-06-27 01:26:00,
2013-06-26 19:41:00,96.7,23.0,29.55,South,170,2.0,5.0,7,0.00,,,0.00,weatherlink.com 1.10,2013-06-27 01:41:00,
2013-06-26 19:56:00,95.5,22.0,29.55,SW,232,1.0,5.0,7,0.00,,,0.00,weatherlink.com 1.10,2013-06-27 01:56:00,
2013-06-26 20:11:00,93.8,27.0,29.55,South,184,0.0,3.0,9,0.00,,,0.00,weatherlink.com 1.10,2013-06-27 02:11:00,
2013-06-26 20:26:00,92.4,23.0,29.56,SE,137,0.0,2.0,8,0.00,,,0.00,weatherlink.com 1.10,2013-06-27 02:26:00,
2013-06-26 20:41:00,91.4,22.0,29.56,SSE,155,1.0,2.0,8,0.00,,,0.00,weatherlink.com 1.10,2013-06-27 02:41:00,
2013-06-26 20:56:00,90.5,24.0,29.57,SE,129,0.0,1.0,9,0.00,,,0.00,weatherlink.com 1.10,2013-06-27 02:56:00,
2013-06-26 21:11:00,89.2,32.0,29.57,SE,129,0.0,1.0,13,0.00,,,0.00,weatherlink.com 1.10,2013-06-27 03:11:00,
2013-06-26 21:26:00,87.2,27.0,29.58,North,349,2.0,2.0,11,0.00,,,0.00,weatherlink.com 1.10,2013-06-27 03:26:00,
2013-06-26 21:41:00,86.6,30.0,29.59,NW,311,0.0,2.0,13,0.00,,,0.00,weatherlink.com 1.10,2013-06-27 03:41:00,
2013-06-26 21:56:00,85.5,29.0,29.59,NW,312,0.0,1.0,13,0.00,,,0.00,weatherlink.com 1.10,2013-06-27 03:56:00,
2013-06-26 22:11:00,84.7,30.0,29.60,NW,315,0.0,1.0,14,0.00,,,0.00,weatherlink.com 1.10,2013-06-27 04:11:00,
2013-06-26 22:26:00,84.0,30.0,29.60,WNW,288,0.0,1.0,14,0.00,,,0.00,weatherlink.com 1.10,2013-06-27 04:26:00,
2013-06-26 22:41:00,83.7,31.0,29.60,WNW,288,0.0,1.0,15,0.00,,,0.00,weatherlink.com 1.10,2013-06-27 04:41:00,
2013-06-26 22:56:00,83.2,29.0,29.61,WNW,289,0.0,1.0,14,0.00,,,0.00,weatherlink.com 1.10,2013-06-27 04:56:00,
2013-06-26 23:11:00,83.3,36.0,29.61,WNW,290,0.0,0.0,18,0.00,,,0.00,weatherlink.com 1.10,2013-06-27 05:11:00,
2013-06-26 23:26:00,82.4,37.0,29.61,WNW,290,0.0,0.0,20,0.00,,,0.00,weatherlink.com 1.10,2013-06-27 05:26:00,
2013-06-26 23:41:00,81.2,34.0,29.61,WNW,288,0.0,1.0,18,0.00,,,0.00,weatherlink.com 1.10,2013-06-27 05:41:00,
2013-06-26 23:56:00,81.3,32.0,29.61,WNW,288,0.0,1.0,17,0.00,,,0.00,weatherlink.com 1.10,2013-06-27 05:56:00,